Location: Newark
(45.4422°N, 16.2769°E)
Time: 02:11:55
(UTC+00:00)

Vanguard 2 Rocket - All Passes

Search period start: 14 December 2019 00:00
Search period end: 24 December 2019 00:00
Orbit: 554 x 3326 km, 32.9° (Epoch: 13 December)

Date Brightness Start Highest point End Pass type
(mag) Time Alt. Az. Time Alt. Az. Time Alt. Az.
14 Dec - 11:58:14 10° SSE 12:02:47 11° SE 12:07:04 10° SE daylight
14 Dec - 14:03:21 10° SSW 14:17:52 29° SSE 14:28:31 10° ESE daylight
14 Dec - 16:18:08 10° SW 16:32:58 42° S 16:42:09 10° ESE visible
14 Dec - 18:35:34 10° WSW 18:46:55 38° SSW 18:53:46 10° SE visible
14 Dec - 20:54:02 10° WSW 20:59:01 16° SW 21:02:49 10° S visible
15 Dec - 13:03:19 10° SSW 13:16:59 24° SSE 13:27:53 10° ESE daylight
15 Dec - 15:16:23 10° SW 15:32:21 40° SSE 15:42:49 10° ESE daylight
15 Dec - 17:33:24 10° WSW 17:47:01 43° S 17:55:07 10° ESE visible
15 Dec - 19:51:35 10° W 19:59:56 26° SSW 20:05:28 10° SSE visible
16 Dec - 12:04:29 10° S 12:16:05 19° SE 12:26:12 10° ESE daylight
16 Dec - 14:15:03 10° SW 14:31:28 37° SSE 14:43:07 10° E daylight
16 Dec - 16:31:11 10° WSW 16:46:43 46° S 16:56:12 10° ESE visible
16 Dec - 18:49:17 10° W 19:00:31 35° SSW 19:07:25 10° SE visible
16 Dec - 21:09:51 10° WSW 21:12:11 11° SW 21:14:14 10° SSW visible
17 Dec - 11:07:57 10° SSE 11:15:17 13° SE 11:22:13 10° ESE daylight
17 Dec - 13:14:20 10° SSW 13:30:25 32° SSE 13:42:54 10° E daylight
17 Dec - 15:29:08 10° WSW 15:46:03 46° S 15:56:58 10° ESE visible
17 Dec - 17:46:55 10° WSW 18:00:41 42° SSW 18:08:56 10° SE visible
17 Dec - 20:05:55 10° W 20:13:12 20° SW 20:18:23 10° S visible
18 Dec - 12:14:28 10° SSW 12:29:20 27° SSE 12:41:59 10° E daylight
18 Dec - 14:27:26 10° SW 14:45:03 44° SSE 14:57:22 10° E daylight
18 Dec - 16:44:30 10° WSW 17:00:24 47° S 17:10:07 10° ESE visible
18 Dec - 19:03:11 10° W 19:13:55 30° SSW 19:20:47 10° SSE visible
19 Dec - 11:15:44 10° S 11:28:21 21° SE 11:39:59 10° E daylight
19 Dec - 13:26:15 10° SW 13:43:51 40° SSE 13:57:21 10° E daylight
19 Dec - 15:42:14 10° WSW 15:59:43 50° S 16:10:58 10° ESE visible
19 Dec - 18:00:35 10° W 18:14:11 39° SSW 18:22:33 10° SE visible
19 Dec - 20:21:00 10° WSW 20:26:16 15° SW 20:30:25 10° SSW visible
20 Dec - 10:19:06 10° SSE 10:27:34 14° SE 10:35:54 10° ESE daylight
20 Dec - 12:25:46 10° SSW 12:42:34 35° SSE 12:56:47 10° E daylight
20 Dec - 14:40:16 10° WSW 14:58:39 49° S 15:11:27 10° ESE daylight
20 Dec - 16:58:02 10° W 17:14:00 46° SSW 17:23:53 10° SE visible
20 Dec - 19:17:24 10° W 19:27:06 24° SW 19:33:43 10° SSE visible
21 Dec - 11:26:09 10° SSW 11:41:23 28° SE 11:55:29 10° E daylight
21 Dec - 13:38:46 10° SW 13:57:20 47° SSE 14:11:31 10° E daylight
21 Dec - 15:55:35 10° WSW 16:13:20 51° S 16:24:50 10° ESE visible
21 Dec - 18:14:27 10° W 18:27:31 34° SSW 18:35:53 10° SSE visible
22 Dec - 10:27:41 10° S 10:40:25 22° SE 10:53:05 10° E daylight
22 Dec - 12:37:53 10° SW 12:55:52 42° SSE 13:11:08 10° E daylight
22 Dec - 14:53:26 10° WSW 15:12:14 52° S 15:25:22 10° ESE daylight
22 Dec - 17:11:41 10° W 17:27:27 42° SSW 17:37:27 10° SE visible
22 Dec - 19:32:12 10° W 19:40:03 18° SW 19:45:56 10° S visible
23 Dec - 09:31:12 10° SSE 09:39:46 15° SE 09:48:38 10° ESE daylight
23 Dec - 11:37:44 10° SSW 11:54:28 36° SSE 12:10:09 10° E daylight
23 Dec - 13:51:43 10° WSW 14:10:49 52° S 14:25:31 10° ESE daylight
23 Dec - 16:09:08 10° W 16:26:51 49° SSW 16:38:31 10° SE visible
23 Dec - 18:28:34 10° W 18:40:37 27° SW 18:48:47 10° SSE visible
